EGUL

RAF Lakenheath

Airport
ICAO code
EGUL
Summary
ICAO Region
EUR
ICAO Territory
Location

Lakenheath, Suffolk, England,

Elevation
32 ft
Coordinates
52° 24' 33" N , 0° 33' 40" E
KCC
Metar
EGUL 221755Z 27012KT 9999 BKN044 06/03 A2886 RMK AO2A RAE24 SLP777 P0001 60028 T00560028 10086 20052 53037 FZRANO $

Description

Royal Air Force Station Lakenheath, commonly abbreviated to RAF Lakenheath, is a military airbase hosting USAF forces near Lakenheath in Suffolk, England.

Climatology

Temperate Marine climate/Oceanic climate (Köppen climate classification Cfb) - Moderately cool summer and comparatively warm winter.

Runways

Designator Length Width Surface Rops
6/24 2743 46 PEM No/No

Airport map

Aerial View

SKYbrary Partners:

Safety knowledge contributed by: